Database contains data from 2013-07-07 to 2026-09-01.
34 measurements (hourly aggregated)
| Time | Temp °C | Dew °C | Humid % | Wind m/s | Gust m/s | Dir ° | Rain mm | Press. hPa | UV | Solar W/m² |
|---|---|---|---|---|---|---|---|---|---|---|
| 31.08.2026 00:00 | 13,1 | 11,6 | 91 | 0,1 | 2,2 | 315 | 0,00 | 1 003,7 | 0,0 | 0 |
| 31.08.2026 01:00 | 12,6 | 11,6 | 94 | 0,2 | 2,2 | 329 | 0,51 | 1 003,8 | 0,0 | 0 |
| 31.08.2026 02:00 | 12,3 | 11,4 | 94 | 0,2 | 2,2 | 338 | 0,00 | 1 004,0 | 0,0 | 0 |
| 31.08.2026 03:00 | 12,2 | 11,4 | 95 | 0,0 | 0,0 | – | 0,00 | 1 003,9 | 0,0 | 0 |
| 31.08.2026 04:00 | 12,1 | 11,5 | 96 | 0,0 | 0,0 | – | 0,00 | 1 003,6 | 0,0 | 0 |
| 31.08.2026 05:00 | 11,8 | 11,2 | 96 | 0,0 | 0,9 | 338 | 0,00 | 1 003,5 | 0,0 | 0 |
| 31.08.2026 06:00 | 11,4 | 10,8 | 96 | 0,0 | 0,9 | – | 0,00 | 1 003,6 | 0,0 | 3 |
| 31.08.2026 07:00 | 11,8 | 11,2 | 96 | 0,0 | 0,0 | – | 0,00 | 1 003,6 | 0,5 | 81 |
| 31.08.2026 08:00 | 12,1 | 11,5 | 96 | 0,0 | 0,9 | – | 0,00 | 1 003,6 | 0,8 | 155 |
| 31.08.2026 09:00 | 13,5 | 12,5 | 93 | 0,0 | 0,4 | – | 0,00 | 1 003,6 | 1,3 | 296 |
| 31.08.2026 10:00 | 16,2 | 13,0 | 81 | 0,5 | 2,2 | 160 | 0,00 | 1 003,3 | 2,1 | 463 |
| 31.08.2026 11:00 | 18,1 | 13,0 | 72 | 0,9 | 3,1 | 283 | 0,00 | 1 003,4 | 2,6 | 539 |
| 31.08.2026 12:00 | 18,6 | 12,9 | 69 | 0,7 | 3,1 | 272 | 0,00 | 1 003,2 | 3,0 | 429 |
| 31.08.2026 13:00 | 18,4 | 13,0 | 71 | 1,1 | 4,0 | 246 | 0,00 | 1 003,2 | 3,2 | 422 |
| 31.08.2026 14:00 | 19,3 | 13,0 | 67 | 1,8 | 4,5 | 263 | 0,00 | 1 003,5 | 3,3 | 600 |
| 31.08.2026 15:00 | 18,7 | 12,8 | 69 | 2,0 | 5,8 | 270 | 0,00 | 1 003,5 | 2,9 | 501 |
| 31.08.2026 16:00 | 18,0 | 12,4 | 70 | 2,5 | 6,7 | 266 | 0,00 | 1 003,6 | 2,3 | 435 |
| 31.08.2026 17:00 | 17,2 | 12,0 | 71 | 2,2 | 6,7 | 270 | 0,00 | 1 003,8 | 1,7 | 260 |
| 31.08.2026 18:00 | 16,6 | 11,3 | 71 | 1,8 | 5,4 | 268 | 0,00 | 1 003,9 | 1,0 | 211 |
| 31.08.2026 19:00 | 16,3 | 10,6 | 69 | 1,6 | 5,8 | 272 | 0,00 | 1 004,2 | 0,8 | 117 |
| 31.08.2026 20:00 | 14,8 | 10,5 | 75 | 0,7 | 4,5 | 295 | 0,00 | 1 004,7 | 0,0 | 11 |
| 31.08.2026 21:00 | 13,7 | 10,2 | 79 | 0,3 | 2,2 | 315 | 0,00 | 1 005,2 | 0,0 | 0 |
| 31.08.2026 22:00 | 13,1 | 10,4 | 83 | 0,0 | 1,3 | 315 | 0,00 | 1 005,5 | 0,0 | 0 |
| 31.08.2026 23:00 | 12,2 | 10,0 | 86 | 0,0 | 0,0 | – | 0,00 | 1 005,7 | 0,0 | 0 |
| 01.09.2026 00:00 | 11,3 | 9,7 | 90 | 0,1 | 1,8 | 315 | 0,00 | 1 006,1 | 0,0 | 0 |
| 01.09.2026 01:00 | 10,9 | 9,7 | 92 | 0,0 | 0,9 | – | 0,00 | 1 006,2 | 0,0 | 0 |
| 01.09.2026 02:00 | 10,3 | 9,2 | 93 | 0,0 | 0,0 | – | 0,00 | 1 006,4 | 0,0 | 0 |
| 01.09.2026 03:00 | 9,8 | 9,0 | 94 | 0,0 | 0,0 | – | 0,00 | 1 006,6 | 0,0 | 0 |
| 01.09.2026 04:00 | 9,4 | 8,6 | 95 | 0,0 | 0,9 | – | 0,00 | 1 006,7 | 0,0 | 0 |
| 01.09.2026 05:00 | 9,2 | 8,5 | 95 | 0,0 | 1,3 | 315 | 0,00 | 1 006,8 | 0,0 | 0 |
| 01.09.2026 06:00 | 9,4 | 8,8 | 96 | 0,2 | 1,8 | 338 | 0,00 | 1 006,8 | 0,0 | 5 |
| 01.09.2026 07:00 | 10,0 | 9,3 | 95 | 0,1 | 1,3 | 338 | 0,00 | 1 006,9 | 0,0 | 35 |
| 01.09.2026 08:00 | 11,1 | 10,2 | 94 | 0,3 | 1,8 | 338 | 0,25 | 1 007,1 | 0,0 | 35 |
| 01.09.2026 09:00 | 11,3 | 10,4 | 94 | 0,2 | 0,9 | 338 | 0,25 | 1 007,2 | 0,0 | 34 |